Tracking 21496 objects as of 30-Sep-2020
HD Live streaming from Space Station
objects crossing your sky now

STARLINK-1688

Track STARLINK-1688 now!
10-day predictions
STARLINK-1688 is classified as:


NORAD ID: 46371
Int'l Code: 2020-062AY
Perigee: 386.1 km
Apogee: 387.5 km
Inclination: 53.0 °
Period: 92.1 minutes
Semi major axis: 6757 km
RCS: Unknown
Launch date: September 3, 2020
Source: United States (US)
Launch site: AIR FORCE EASTERN TEST RANGE (AFETR)
aabbcc
Your satellite tracking list
Your tracking list is empty




NASA's NSSDC Master Catalog

Two Line Element Set (TLE):
1 46371U 20062AY  20273.83334491 -.00045348 +00000-0 -49179-3 0  9999
2 46371 053.0001 299.7053 0001055 063.6805 089.7094 15.62773072001813
Source of the keplerian elements: AFSPC